Home > Weather > Roswell > Past weeks

Flag for U.S.A. Weather for the Past 2 Weeks in Roswell, New Mexico, U.S.A.

Now
42 °F

Clear.


Feels Like: 37 °F
Forecast: 35 / 68 °F
Wind: 9 mph from Southwest

Location: Roswell Industrial Air Center Airport

Current Time: Feb 11, 2016 at 8:47:00 PM

Latest Report: Feb 11, 2016 at 7:51 PM


Visibility: 10 mi

Pressure: 30.14 "Hg (26.37 "Hg at 1089m altitude)

Humidity: 39%

Dew point: 19 °F

Location of RoswellLocation

Historic Weather in Roswell — Graph

°F

Roswell Temperature Yesterday

Maximum temperature yesterday: 74 °F (at 2:51 PM)
Minimum temperature yesterday: 27 °F (at 6:51 AM)
Average temperature yesterday: 49 °F

High & Low Weather Summary for the Past Weeks

 TemperatureHumidityPressure
High79 °F (Jan 29, 12:51 PM)82% (Jan 29, 4:51 AM)30.52 "Hg (Jan 29, 4:51 AM)
Low15 °F (Feb 6, 4:51 AM)7% (Jan 29, 12:51 PM)29.43 "Hg (Feb 1, 10:51 AM)
Average43 °F39%30.07 "Hg
* Reported Jan 27 6:51 PM — Feb 11 6:51 PM, Roswell, Weather by CustomWeather, © 2016

Note: Actual official high and low records may vary slightly from our data, if they occured in-between our weather recording intervals... More about our weather records

Advertising

Roswell Weather History for the Previous 24 Hours

 ConditionsComfort  
Time TempWeatherWind HumidityBarometerVisibility
6:51 PM
Thu, Feb 11
50 °FClear.7 mph28%30.14 "Hg10 mi
5:51 PM61 °FClear.5 mph17%30.11 "Hg10 mi
4:51 PM70 °FSunny.3 mph12%30.07 "Hg10 mi
3:51 PM71 °FSunny.6 mph12%30.06 "Hg10 mi
2:51 PM71 °FSunny.6 mph12%30.06 "Hg10 mi
1:51 PM71 °FSunny.8 mph12%30.07 "Hg10 mi
12:51 PM69 °FSunny.10 mph13%30.10 "Hg10 mi
11:51 AM68 °FSunny.14 mph13%30.12 "Hg10 mi
10:51 AM64 °FSunny.13 mph16%30.15 "Hg10 mi
9:51 AM61 °FSunny.20 mph17%30.15 "Hg10 mi
8:51 AM56 °FSunny.14 mph23%30.16 "Hg10 mi
7:51 AM41 °FSunny.7 mph43%30.19 "Hg10 mi
6:51 AM31 °FSunny.3 mph59%30.16 "Hg10 mi
5:51 AM30 °FClear.8 mph61%30.11 "Hg10 mi
4:51 AM33 °FClear.No wind54%30.09 "Hg10 mi
3:51 AM34 °FClear.No wind54%30.05 "Hg10 mi
2:51 AM36 °FClear.No wind52%30.04 "Hg10 mi
1:51 AM36 °FClear.No wind54%30.05 "Hg10 mi
12:51 AM37 °FClear.No wind50%30.06 "Hg10 mi
11:51 PM
Wed, Feb 10
42 °FClear.5 mph38%30.06 "Hg10 mi
10:51 PM45 °FClear.3 mph34%30.06 "Hg10 mi
9:51 PM49 °FClear.13 mph29%30.08 "Hg10 mi
8:51 PM50 °FClear.10 mph30%30.09 "Hg10 mi
Weather by CustomWeather, © 2016

See weather overviewHow to use our weather pages